Regional Weather Roundup
Issued by NWS

Home | Current Version | Previous Version | Graphics & Text | Print | Product List | Glossary On
Versions: 1 2 3 4 5 6 7 8 9 10 11 12 13 14 15 16 17 18 19 20 21 22 23 24 25 26 27 28 29 30 31 32 33 34 35 36 37 38 39 40 41 42 43 44 45 46 47 48 49 50
000
ASUS43 KOAX 080610
RWRNE

WEATHER ROUNDUP FOR NEBRASKA
NATIONAL WEATHER SERVICE OMAHA NE
1200 AM CST MON FEB 08 2016

NOTES: SATELLITE DATA IS BEING USED TO AUGMENT CLOUD COVER ABOVE
       12000 FEET.
       "FAIR" INDICATES FEW OR NO CLOUDS BELOW 12,000 FEET WITH NO
       SIGNIFICANT WEATHER AND/OR OBSTRUCTIONS TO VISIBILITY.

  * THESE STATIONS DO NOT REPORT WEATHER SUCH AS RAIN...SNOW OR FOG.

NEZ001>004-019>022-054>056-080700-
NEBRASKA PANHANDLE

CITY           SKY/WX    TMP DP  RH WIND       PRES   REMARKS
SCOTTSBLUFF    CLEAR     25  13  60 NW14      30.37S WCI  13
6HR MIN TEMP:  25; 6HR MAX TEMP:  32;

ALLIANCE       CLEAR     24  12  60 NW22G30   30.29F WCI   9
6HR MIN TEMP:  19; 6HR MAX TEMP:  30;

CHADRON        CLEAR     26  13  57 W12       30.34R WCI  16
6HR MIN TEMP:  25; 6HR MAX TEMP:  33;

KIMBALL        CLEAR     26  10  51 NW20G26   30.36R WCI  12
SIDNEY         CLEAR     24  11  57 NW23      30.33S WCI   9
6HR MIN TEMP:  24; 6HR MAX TEMP:  28;

$$

NEZ057>060-069>072-079>082-080700-
SOUTHWEST NEBRASKA

CITY           SKY/WX    TMP DP  RH WIND       PRES   REMARKS
NORTH PLATTE   CLEAR     28  13  53 NW20      30.24S WCI  15
6HR MIN TEMP:  24; 6HR MAX TEMP:  35;

IMPERIAL       CLEAR     27  13  55 NW20G30   30.29S WCI  13
6HR MIN TEMP:  27; 6HR MAX TEMP:  33;

LEXINGTON      CLEAR     28  15  60 NW15      30.21S WCI  16
MCCOOK         CLEAR     28  16  60 NW14      30.28R WCI  17
6HR MIN TEMP:  28; 6HR MAX TEMP:  36;

OGALLALA       CLEAR     27  13  56 NW23G31   30.29S WCI  12
$$

NEZ005>010-023>029-035>040-094-080700-
NORTH CENTRAL NEBRASKA

CITY           SKY/WX    TMP DP  RH WIND       PRES   REMARKS
VALENTINE      CLEAR     30  16  56 NW28G38   30.20R WCI  15
6HR MIN TEMP:  30; 6HR MAX TEMP:  35;

AINSWORTH      CLEAR     32  17  53 NW33G40   30.17R WCI  17
BROKEN BOW     CLOUDY    33  17  51 NW31G44   30.16R WCI  19
6HR MIN TEMP:  32; 6HR MAX TEMP:  37;

O`NEILL        CLOUDY    33  17  53 NW36G45   30.10S WCI  17
ORD            PTCLDY    31  17  56 NW20G31   30.11F WCI  19
6HR MIN TEMP:  30; 6HR MAX TEMP:  37;

THEDFORD       CLEAR     31  16  54 NW24G35   30.21S WCI  17
$$

NEZ041-046>049-061>064-073>077-083>087-080700-
SOUTH CENTRAL NEBRASKA

CITY           SKY/WX    TMP DP  RH WIND       PRES   REMARKS
GRAND ISLAND   CLEAR     30  17  58 NW17      30.14S WCI  18
6HR MIN TEMP:  30; 6HR MAX TEMP:  37;

AURORA         CLEAR     31  17  58 NW25      30.11S WCI  17
HASTINGS       CLEAR     30  17  58 NW21      30.14S WCI  17
6HR MIN TEMP:  30; 6HR MAX TEMP:  38;

HEBRON         CLEAR     33  19  57 NW15G22   30.14R WCI  23
HOLDREGE       CLEAR     29  16  58 NW17      30.19S WCI  17
YORK           CLEAR     32  19  59 NW25G32   30.09S WCI  19
$$

NEZ011>018-030>034-042>045-080700-
NORTHEAST NEBRASKA

CITY           SKY/WX    TMP DP  RH WIND       PRES   REMARKS
NORFOLK        CLOUDY    33  19  56 NW29G40   30.00F WCI  19
6HR MIN TEMP:  33; 6HR MAX TEMP:  36; 6HR PCP: TRACE;

ALBION         PTCLDY    31  17  56 NW25G35   30.05S WCI  17
BLAIR          CLOUDY    31  23  73 NW25G32   29.98S WCI  17
COLUMBUS *     CLOUDY    34  14  44 NW23      30.06S WCI  22
FREMONT        CLOUDY    32  23  68 NW20G31   30.02S WCI  20
TEKAMAH        CLOUDY    30  21  69 NW22      30.01S WCI  17
6HR MIN TEMP:  30; 6HR MAX TEMP:  35; 6HR PCP:  0.02;

WAYNE          CLOUDY    31  23  72 N23G32    30.00S WCI  18
$$

NEZ050>053-065>068-078-088>093-080700-
SOUTHEAST NEBRASKA

CITY           SKY/WX    TMP DP  RH WIND       PRES   REMARKS
LINCOLN        CLOUDY    35  20  54 NW25G37   30.07R WCI  23
6HR MIN TEMP:  35; 6HR MAX TEMP:  37; 6HR PCP: TRACE;

OMAHA EPPLEY   CLOUDY    30  23  75 NW26G37   29.99S WCI  16
6HR MIN TEMP:  30; 6HR MAX TEMP:  36; 6HR PCP:  0.01;

BEATRICE       PTCLDY    33  22  63 NW23      30.08S WCI  21
FALLS CITY     CLOUDY    36  23  59 NW18G31   30.03R WCI  26
6HR MIN TEMP:  35; 6HR MAX TEMP:  38; 6HR PCP: TRACE;

NEBRASKA CITY  CLOUDY    32  26  76 N17G29    30.02R WCI  21
PLATTSMOUTH    FLURRIES  32  24  72 NW30G36   30.00S WCI  17
$$

NEZ044-045-051>053-067-080700-
OMAHA AREA

CITY           SKY/WX    TMP DP  RH WIND       PRES   REMARKS
OMAHA EPPLEY   CLOUDY    30  23  75 NW26G37   29.99S WCI  16
6HR MIN TEMP:  30; 6HR MAX TEMP:  36; 6HR PCP:  0.01;

BLAIR          CLOUDY    31  23  73 NW25G32   29.98S WCI  17
FREMONT        CLOUDY    32  23  68 NW20G31   30.02S WCI  20
MILLARD        CLOUDY    32  24  73 NW12G21   30.02S WCI  23
OFFUTT AFB     CLOUDY    32  21  65 NW22G37   30.00R WCI  19
PLATTSMOUTH    FLURRIES  32  24  72 NW30G36   30.00S WCI  17
WAHOO          CLOUDY    34  22  61 NW26G43   30.02S WCI  21
$$




USA.gov is the U.S. government's official web portal to all federal, state and local government web resources and services.